Flag for Ireland Weather past 2 weeks in Cork, Ireland

Now
54 °F

Drizzle. Low clouds.


Feels Like: 54 °F
Forecast: 55 / 61 °F
Wind: 3 mph from South

Location: Cork Airport

Current Time: Aug 1, 2015 at 9:55:07 PM

Latest Report: Aug 1, 2015 at 9:00 PM


Visibility: 2 mi

Pressure: 29.95 "Hg

Humidity: 95%

Dew point: 53 °F

Location of CorkLocation

Historic Weather in Cork — Graph

°F

Cork temperature yesterday

Maximum temperature yesterday: 59 °F (at 3:00 PM)
Minimum temperature yesterday: 50 °F (at 3:00 AM)
Average temperature yesterday: 54 °F

Past Weeks' High & Low Weather Summary

 TemperatureHumidityPressure
High64 °F (Jul 22, 3:00 PM)100% (Jul 18, 11:00 PM)30.22 "Hg (Jul 18, 11:00 PM)
Low46 °F (Jul 30, 5:00 AM)51% (Jul 29, 4:00 PM)29.35 "Hg (Jul 26, 10:00 AM)
Average55 °F84%29.90 "Hg
* Reported Jul 17 6:00 PM — Aug 1 6:00 PM, Cork, Weather by CustomWeather, © 2015

Note: Actual official high and low records may vary slightly from our data, if they occured in-between our weather recording intervals... More about our weather records

Advertising

Cork weather history for previous 24 hours

 ConditionsComfort  
Time TempWeatherWind HumidityBarometerVisibility
6:00 PM
Sat, Aug 1
58 °FOvercast.5 mph75%29.95 "Hg31 mi
5:00 PM60 °FOvercast.6 mph68%29.96 "Hg31 mi
4:00 PM61 °FOvercast.3 mph56%29.95 "Hg37 mi
3:00 PM62 °FOvercast.5 mph60%29.96 "Hg37 mi
2:00 PM60 °FOvercast.7 mph64%29.95 "Hg37 mi
1:00 PM60 °FOvercast.6 mph61%29.94 "Hg37 mi
12:00 PM59 °FOvercast.6 mph68%29.94 "Hg31 mi
11:00 AM59 °FOvercast.6 mph68%29.94 "Hg31 mi
10:00 AM58 °FPartly sunny.6 mph67%29.94 "Hg37 mi
9:00 AM55 °FPartly sunny.5 mph80%29.93 "Hg37 mi
8:00 AM54 °FPartly sunny.3 mph100%29.93 "Hg28 mi
7:00 AM53 °FPartly sunny.3 mph100%29.91 "Hg22 mi
6:00 AM53 °FLow clouds.3 mph100%29.91 "Hg16 mi
3:00 AM53 °FLight rain. Low clouds.3 mph100%29.93 "Hg7 mi
2:00 AM52 °FLow clouds.3 mph100%29.95 "Hg12 mi
1:00 AM51 °FPassing clouds.2 mph100%29.95 "Hg16 mi
12:00 AM52 °FLow clouds.3 mph100%29.96 "Hg16 mi
11:00 PM
Fri, Jul 31
52 °FPassing clouds.5 mph99%29.96 "Hg16 mi
9:00 PM54 °FLow clouds.6 mph97%29.95 "Hg19 mi
Weather by CustomWeather, © 2015

See weather overviewHow to use our weather pages